Weather History for Nausori, Fiji

Change the Weather History Date:

Friday, January 30, 2004

  Actual Average Record
Temperature  
Mean Temperature 80 °F -  
Max Temperature 86 °F - - ()
Min Temperature 73 °F - - ()
Cooling Degree Days 14    
Growing Degree Days 30 (Base 50)    
Moisture  
Dew Point 76 °F    
Average Humidity 88    
Maximum Humidity 100    
Minimum Humidity 74    
Precipitation  
Precipitation 0.00 in - - ()
Sea Level Pressure  
Sea Level Pressure 29.83 in    
Wind  
Wind Speed 3 mph ()    
Max Wind Speed 13 mph    
Max Gust Speed -    
T = Trace of Precipitation, MM = Missing Value Source: Averaged Metar Reports

Daily Weather History Graph

Daily Weather History Graph

Search for Another Location

Airport:

Trip Planner

Search our weather history database for the weather conditions in past years. The results will help you decide how hot, cold, wet, or windy it might be!

Date:

Astronomy

Jan. 30, 2004 Rise Set
Actual Time 5:50 AM FJT 6:46 PM FJT
Civil Twilight 5:27 AM FJT 7:09 PM FJT
Nautical Twilight 5:00 AM FJT 7:37 PM FJT
Astronomical Twilight 4:32 AM FJT 8:04 PM FJT
Moon 12:57 PM FJT (1/30) No Moon Set
Length of Visible Light 13h 42m
Length of Day
12h 55m
First Quarter, 57% of the Moon is Illuminated
Jan 30
First Quarter
Feb 6
Full
Feb 14
Last Quarter
Feb 20
New
Feb 28
First Quarter

Hourly Weather History & Observations

Time (FJT) Temp. Heat Index Dew Point Humidity Pressure Visibility Wind Dir Wind Speed Gust Speed Precip Events Conditions
12:00 AM 77.0 °F - 75.2 °F 94% 29.89 in 24.9 mi ESE 3.5 mph - N/A   Partly Cloudy
1:00 AM 77.0 °F - 75.2 °F 94% 29.86 in 24.9 mi Calm Calm - N/A   Partly Cloudy
2:00 AM 77.0 °F - 75.2 °F 94% 29.83 in 24.9 mi East 4.6 mph - N/A   Partly Cloudy
3:00 AM 77.0 °F - 75.2 °F 94% 29.83 in 24.9 mi Calm Calm - N/A   Partly Cloudy
4:00 AM 75.2 °F - 73.4 °F 94% 29.83 in 24.9 mi Calm Calm - N/A   Partly Cloudy
5:00 AM 73.4 °F - 73.4 °F 100% 29.83 in 24.9 mi Calm Calm - N/A   Partly Cloudy
6:00 AM 75.2 °F - 73.4 °F 94% 29.83 in 31.1 mi Calm Calm - N/A   Partly Cloudy
7:00 AM 77.0 °F - 73.4 °F 89% 29.86 in 31.1 mi Calm Calm - N/A   Partly Cloudy
8:00 AM 80.6 °F 87.1 °F 77.0 °F 89% 29.83 in 31.1 mi East 4.6 mph - N/A   Scattered Clouds
9:00 AM 84.2 °F 92.3 °F 75.2 °F 74% 29.86 in 31.1 mi East 11.5 mph - N/A   Mostly Cloudy
10:00 AM 84.2 °F 92.3 °F 75.2 °F 74% 29.83 in 31.1 mi ESE 12.7 mph - N/A   Scattered Clouds
11:00 AM 84.2 °F 94.1 °F 77.0 °F 79% 29.83 in 28.0 mi SE 5.8 mph - N/A Rain Light Rain Showers
12:00 PM 82.4 °F 92.4 °F 78.8 °F 89% 29.83 in 28.0 mi East 9.2 mph - N/A Rain Light Rain Showers
1:00 PM 82.4 °F 92.4 °F 78.8 °F 89% 29.80 in 31.1 mi East 8.1 mph - N/A Rain Light Rain Showers
2:00 PM 82.4 °F 92.4 °F 78.8 °F 89% 29.80 in 31.1 mi East 9.2 mph - N/A   Mostly Cloudy
3:00 PM 86.0 °F 96.9 °F 77.0 °F 74% 29.77 in 31.1 mi East 9.2 mph - N/A   Scattered Clouds
4:00 PM 86.0 °F 96.9 °F 77.0 °F 74% 29.77 in 31.1 mi East 9.2 mph - N/A   Mostly Cloudy
5:00 PM 78.8 °F - 77.0 °F 94% 29.77 in 31.1 mi East 5.8 mph - N/A   Mostly Cloudy
6:00 PM 82.4 °F 90.9 °F 77.0 °F 84% 29.80 in 31.1 mi East 5.8 mph - N/A   Mostly Cloudy
7:00 PM 82.4 °F 90.9 °F 77.0 °F 84% 29.80 in 31.1 mi Calm Calm - N/A   Scattered Clouds
8:00 PM 80.6 °F 87.1 °F 77.0 °F 89% 29.83 in 31.1 mi Calm Calm - N/A   Partly Cloudy
9:00 PM 78.8 °F - 77.0 °F 94% 29.86 in 31.1 mi Calm Calm - N/A   Partly Cloudy
10:00 PM 78.8 °F - 77.0 °F 94% 29.86 in 24.9 mi Calm Calm - N/A   Scattered Clouds
11:00 PM 78.8 °F - 75.2 °F 89% 29.86 in 31.1 mi Calm Calm - N/A   Partly Cloudy